When you browse on this site, cookies collect data to enhance your experience and personalize the content and advertising you see.
Visit our Privacy Policy to learn more. By continuing to use the site, you agree to this use of cookies and data.

Stündliche Wetter Putten

Heute, 24 September, Donnerstag

Zeit Temperatur Niederschläge Wind Luftdruck Luftfeuchtigkeit
00:00 +16°C° 0 mm 8 m/S 746 mmHg 95%
01:00 +14°C° 0.4 mm 7 m/S 747 mmHg 91%
02:00 +12°C° 0.4 mm 7 m/S 747 mmHg 88%
03:00 +11°C° 0.4 mm 7 m/S 748 mmHg 84%
04:00 +10°C° 0 mm 6 m/S 748 mmHg 84%
05:00 +10°C° 0 mm 6 m/S 749 mmHg 84%
06:00 +10°C° 0 mm 5 m/S 750 mmHg 87%
07:00 +11°C° 0 mm 6 m/S 750 mmHg 82%
08:00 +12°C° 0 mm 7 m/S 750 mmHg 77%
09:00 +14°C° 0 mm 7 m/S 750 mmHg 72%
10:00 +15°C° 0 mm 8 m/S 750 mmHg 65%
11:00 +16°C° 0 mm 8 m/S 749 mmHg 59%
12:00 +17°C° 0 mm 7 m/S 749 mmHg 54%
13:00 +17°C° 0 mm 7 m/S 749 mmHg 57%
14:00 +17°C° 0 mm 6 m/S 748 mmHg 59%
15:00 +16°C° 0 mm 5 m/S 748 mmHg 62%
16:00 +15°C° 0.2 mm 5 m/S 748 mmHg 68%
17:00 +14°C° 0.2 mm 5 m/S 747 mmHg 74%
18:00 +13°C° 0.2 mm 5 m/S 747 mmHg 81%
19:00 +12°C° 1.1 mm 5 m/S 746 mmHg 84%
20:00 +12°C° 1.1 mm 5 m/S 746 mmHg 88%
21:00 +10°C° 1.1 mm 5 m/S 745 mmHg 91%
22:00 +11°C° 0.2 mm 4 m/S 745 mmHg 92%
23:00 +11°C° 0.2 mm 4 m/S 745 mmHg 93%

Morgen, 25 September, Freitag

Zeit Temperatur Niederschläge Wind Luftdruck Luftfeuchtigkeit
00:00 +12°C° 0.2 mm 4 m/S 745 mmHg 94%
01:00 +11°C° 0.2 mm 4 m/S 744 mmHg 92%
02:00 +11°C° 0.2 mm 4 m/S 744 mmHg 91%
03:00 +10°C° 0.2 mm 4 m/S 744 mmHg 90%
04:00 +10°C° 0 mm 4 m/S 744 mmHg 90%
05:00 +8°C° 0 mm 4 m/S 744 mmHg 90%
06:00 +7°C° 0 mm 5 m/S 744 mmHg 90%
07:00 +8°C° 0 mm 5 m/S 745 mmHg 84%
08:00 +9°C° 0 mm 5 m/S 745 mmHg 78%
09:00 +10°C° 0 mm 6 m/S 745 mmHg 73%
10:00 +12°C° 0 mm 5 m/S 745 mmHg 69%
11:00 +13°C° 0 mm 5 m/S 745 mmHg 66%
12:00 +14°C° 0 mm 4 m/S 744 mmHg 63%
13:00 +14°C° 0.1 mm 4 m/S 744 mmHg 64%
14:00 +14°C° 0.1 mm 4 m/S 744 mmHg 65%
15:00 +14°C° 0.1 mm 3 m/S 744 mmHg 65%
16:00 +14°C° 0.1 mm 2 m/S 744 mmHg 71%
17:00 +12°C° 0.1 mm 2 m/S 744 mmHg 77%
18:00 +11°C° 0.1 mm 1 m/S 744 mmHg 83%
19:00 +10°C° 0 mm 1 m/S 745 mmHg 85%
20:00 +9°C° 0 mm 2 m/S 745 mmHg 88%
21:00 +8°C° 0 mm 2 m/S 745 mmHg 90%
22:00 +8°C° 0 mm 2 m/S 745 mmHg 91%
23:00 +8°C° 0 mm 1 m/S 745 mmHg 92%

übermorgen, 26 September, Samstag

Zeit Temperatur Niederschläge Wind Luftdruck Luftfeuchtigkeit
00:00 +8°C° 0 mm 1 m/S 745 mmHg 93%
01:00 +8°C° 0 mm 1 m/S 746 mmHg 93%
02:00 +8°C° 0 mm 1 m/S 746 mmHg 93%
03:00 +7°C° 0 mm 2 m/S 746 mmHg 93%
04:00 +8°C° 0 mm 1 m/S 747 mmHg 93%
05:00 +8°C° 0 mm 1 m/S 747 mmHg 92%
06:00 +8°C° 0 mm 1 m/S 748 mmHg 91%
07:00 +10°C° 0 mm 1 m/S 748 mmHg 84%
08:00 +12°C° 0 mm 1 m/S 748 mmHg 78%
09:00 +14°C° 0 mm 1 m/S 749 mmHg 71%
10:00 +15°C° 0 mm 2 m/S 749 mmHg 66%
11:00 +16°C° 0 mm 3 m/S 749 mmHg 62%
12:00 +15°C° 0 mm 4 m/S 749 mmHg 57%
13:00 +15°C° 0.2 mm 4 m/S 749 mmHg 65%
14:00 +14°C° 0.2 mm 5 m/S 749 mmHg 73%
15:00 +14°C° 0.2 mm 5 m/S 749 mmHg 80%
16:00 +13°C° 0.4 mm 5 m/S 749 mmHg 82%
17:00 +13°C° 0.4 mm 6 m/S 749 mmHg 84%
18:00 +11°C° 0.4 mm 6 m/S 749 mmHg 86%
19:00 +11°C° 0.1 mm 6 m/S 749 mmHg 86%
20:00 +11°C° 0.1 mm 7 m/S 749 mmHg 86%
21:00 +11°C° 0.1 mm 7 m/S 749 mmHg 85%
22:00 +11°C° 1.4 mm 7 m/S 748 mmHg 88%
23:00 +11°C° 1.4 mm 7 m/S 747 mmHg 90%

27 September, Sonntag

Zeit Temperatur Niederschläge Wind Luftdruck Luftfeuchtigkeit
00:00 +11°C° 1.4 mm 7 m/S 747 mmHg 92%
01:00 +12°C° 0.7 mm 7 m/S 747 mmHg 93%
02:00 +14°C° 0.7 mm 7 m/S 746 mmHg 93%
03:00 +14°C° 0.7 mm 7 m/S 746 mmHg 94%
04:00 +14°C° 0.1 mm 7 m/S 746 mmHg 93%
05:00 +13°C° 0.1 mm 6 m/S 746 mmHg 92%
06:00 +11°C° 0.1 mm 6 m/S 747 mmHg 91%
07:00 +11°C° 0 mm 6 m/S 747 mmHg 89%
08:00 +11°C° 0 mm 6 m/S 748 mmHg 87%
09:00 +10°C° 0 mm 6 m/S 749 mmHg 84%
10:00 +11°C° 0 mm 6 m/S 749 mmHg 80%
11:00 +13°C° 0 mm 5 m/S 750 mmHg 76%
12:00 +13°C° 0 mm 5 m/S 750 mmHg 72%
13:00 +13°C° 0 mm 4 m/S 750 mmHg 73%
14:00 +13°C° 0 mm 4 m/S 751 mmHg 75%
15:00 +13°C° 0 mm 3 m/S 751 mmHg 76%
16:00 +14°C° 0 mm 2 m/S 751 mmHg 80%
17:00 +14°C° 0 mm 2 m/S 751 mmHg 84%
18:00 +14°C° 0 mm 1 m/S 752 mmHg 88%
19:00 +14°C° 0.1 mm 2 m/S 752 mmHg 90%
20:00 +15°C° 0.1 mm 2 m/S 752 mmHg 93%
21:00 +14°C° 0.1 mm 3 m/S 753 mmHg 96%
22:00 +14°C° 0 mm 3 m/S 753 mmHg 96%
23:00 +16°C° 0 mm 3 m/S 753 mmHg 96%

28 September, Montag

Zeit Temperatur Niederschläge Wind Luftdruck Luftfeuchtigkeit
00:00 +16°C° 0 mm 3 m/S 753 mmHg 96%
01:00 +16°C° 0.1 mm 3 m/S 753 mmHg 96%
02:00 +16°C° 0.1 mm 3 m/S 753 mmHg 97%
03:00 +16°C° 0.1 mm 3 m/S 753 mmHg 97%
04:00 +16°C° 0 mm 3 m/S 753 mmHg 97%
05:00 +16°C° 0 mm 3 m/S 753 mmHg 97%
06:00 +16°C° 0 mm 3 m/S 753 mmHg 97%
07:00 +17°C° 0 mm 3 m/S 754 mmHg 95%
08:00 +18°C° 0 mm 4 m/S 754 mmHg 92%
09:00 +18°C° 0 mm 4 m/S 754 mmHg 89%
10:00 +17°C° 0 mm 5 m/S 754 mmHg 88%
11:00 +17°C° 0 mm 5 m/S 755 mmHg 87%
12:00 +17°C° 0 mm 5 m/S 755 mmHg 86%
13:00 +17°C° 0 mm 5 m/S 755 mmHg 86%
14:00 +17°C° 0 mm 5 m/S 755 mmHg 85%
15:00 +17°C° 0 mm 5 m/S 755 mmHg 85%
16:00 +17°C° 0 mm 4 m/S 756 mmHg 86%
17:00 +17°C° 0 mm 4 m/S 756 mmHg 87%
18:00 +17°C° 0 mm 4 m/S 757 mmHg 89%
19:00 +15°C° 0 mm 4 m/S 757 mmHg 88%
20:00 +15°C° 0 mm 4 m/S 757 mmHg 88%
21:00 +15°C° 0 mm 4 m/S 758 mmHg 87%
22:00 +14°C° 0.1 mm 4 m/S 758 mmHg 83%
23:00 +14°C° 0.1 mm 3 m/S 758 mmHg 78%

29 September, Dienstag

Zeit Temperatur Niederschläge Wind Luftdruck Luftfeuchtigkeit
00:00 +13°C° 0.1 mm 3 m/S 758 mmHg 74%
01:00 +12°C° 0 mm 3 m/S 758 mmHg 77%
02:00 +12°C° 0 mm 3 m/S 758 mmHg 80%
03:00 +11°C° 0 mm 3 m/S 758 mmHg 84%
04:00 +11°C° 0 mm 3 m/S 758 mmHg 88%
05:00 +12°C° 0 mm 3 m/S 759 mmHg 92%
06:00 +12°C° 0 mm 3 m/S 759 mmHg 96%
07:00 +14°C° 0 mm 3 m/S 759 mmHg 93%
08:00 +16°C° 0 mm 3 m/S 759 mmHg 90%
09:00 +17°C° 0 mm 3 m/S 759 mmHg 87%
10:00 +18°C° 0.2 mm 4 m/S 760 mmHg 86%
11:00 +18°C° 0.2 mm 4 m/S 760 mmHg 85%
12:00 +18°C° 0.2 mm 4 m/S 760 mmHg 84%
13:00 +18°C° 0.6 mm 4 m/S 760 mmHg 83%
14:00 +19°C° 0.6 mm 4 m/S 759 mmHg 82%
15:00 +19°C° 0.6 mm 4 m/S 759 mmHg 81%
16:00 +18°C° 0.1 mm 3 m/S 759 mmHg 85%
17:00 +16°C° 0.1 mm 2 m/S 760 mmHg 89%
18:00 +15°C° 0.1 mm 2 m/S 760 mmHg 92%
19:00 +15°C° 0 mm 1 m/S 760 mmHg 92%
20:00 +15°C° 0 mm 1 m/S 760 mmHg 92%
21:00 +14°C° 0 mm 0 m/S 760 mmHg 92%
22:00 +15°C° 0.1 mm 1 m/S 760 mmHg 93%
23:00 +15°C° 0.1 mm 1 m/S 759 mmHg 93%
Mehr zeigen